www.pogodaiklimat.ru

Погода и климат >> Архив погоды >> Россия >> Камчатский край >> Усть-Камчатск


ПОГОДА в Усть-Камчатске

  • Прогноз погоды в Усть-Камчатске
  • Монитор погоды в Усть-Камчатске

АРХИВ ПОГОДЫ в Усть-Камчатске

Время (UTC), дата Ветер
(напр.,м/с)
 
Видим.   Явления Облачность Т
(С)
Тd
(С)
f
(%)
Тe
(С)
Тes
(С)
Комфортность P
(гПа)
Po
(гПа)
Тmin
(С)
Tmax
(С)
R
(мм)
R24
(мм)
S
(см)
12 15.01 СЗ 2 50 км 3/0
[Ac trans Ci fib]
-22.2 -25.0 78 -28 -28 1015.8 1012.6
15 15.01 С 1 50 км 3/1
[Sc Ac trans Ci fib]
-24.8 -27.6 77 -28 -28 1016.2 1013.0
18 15.01 СВ 1 50 км 3/0
[Ac trans Ci fib]
-22.9 -25.4 80 -26 -26 1016.7 1013.5
21 15.01 СВ 1 50 км 3/0
[Ac trans Ci fib]
-18.9 -21.0 83 -22 -22 1017.4 1014.2 -27.0 134
00 16.01 СВ 1 50 км 1/0
[Ac trans]
-19.1 -21.1 84 -22 -21 1017.7 1014.6
03 16.01 С 1 50 км 3/0
[Ac trans Ci fib]
-20.6 -22.8 82 -24 -23 1016.9 1013.7
06 16.01 В 2 50 км 4/0
[Ac trans]
-22.5 -24.7 82 -29 -29 1017.1 1013.9
09 16.01 С 3 50 км 4/3 1000 м
[Sc Ac trans]
-27.6 -30.8 74 -37 -37 опасность
обморожения
1016.7 1013.5 -16.8
12 16.01 С 2 20 км 5/5 1000 м
[Sc Ac trans]
-25.4 -28.4 76 -32 -32 опасность
обморожения
1015.9 1012.7
15 16.01 С 4 20 км 6/5 1000 м
[Sc Ac trans]
-21.2 -23.6 81 -30 -30 1014.0 1010.9
18 16.01 С 8 10 км слаб. ливневой снег {метель} 10/10 300 м
[Cb cap]
-15.1 -17.1 85 -26 -26 1011.5 1008.4
21 16.01 С 7
{10}
10 км позёмок {ливн. осадки} 10/8 300 м
[St Ac und]
-14.0 -15.5 88 -24 -24 1008.6 1005.6 -27.6 0.0 134
00 17.01 СВ 6-10
{10}
10 км слаб. ливневой снег {метель} 10/10 300 м
[Cb cap]
-9.0 -9.9 93 -17 -17 1007.2 1004.2
03 17.01 С 10-12
{12}
1000 м ливневой снег {метель} 10/10 200 м
[Cb cap]
-10.9 -12.3 89 -22 -22 1004.2 1001.2
06 17.01 С 10-12
{12}
1000 м ливневой снег {метель} 10/10 100 м
[Cb cap]
-10.0 -11.4 89 -21 -21 1000.5 997.5
09 17.01 С 13-17
{17}
1000 м ливневой снег {метель} 10/10 100 м
[Cb cap]
-10.0 -11.3 90 -22 -22 997.4 994.4 -7.6 3
12 17.01 С 7-12
{18}
1000 м ливневой снег {метель} 10/10 100 м
[Cb cap]
-9.3 -10.6 90 -18 -18 994.8 991.9
15 17.01 СВ 9-12
{15}
1000 м ливневой снег {метель} 10/10 100 м
[Cb cap]
-9.7 -11.0 90 -20 -20 994.0 991.0
18 17.01 СЗ 5
{12}
1000 м ливневой снег {метель} 10/10 100 м
[Cb cap]
-12.3 -14.5 84 -20 -20 994.9 991.9
21 17.01 З 3 10 км {ливн. осадки, метель} 8/5 600 м
[St Ac trans]
-14.7 -17.6 79 -21 -21 997.8 994.8 -15.3 8 144
00 18.01 З 2 20 км {ливн. осадки} 8/6 300 м
[St Ac trans]
-14.3 -18.0 73 -19 -19 999.9 996.9
03 18.01 СЗ 1 20 км 6/3 1000 м
[Sc Ac trans]
-14.2 -19.2 66 -17 -16 999.9 996.9
06 18.01 В 3 50 км 3/0
[Ac trans Ci fib]
-20.4 -23.2 78 -28 -28 1001.1 998.0
09 18.01 С 2 50 км 6/3 1000 м
[Sc Ac trans Ci fib]
-16.1 -18.8 80 -21 -21 1001.5 998.5 -13.2
12 18.01 С 6 50 км 6/3 1000 м
[Sc Ac trans Ci fib]
-17.2 -19.8 80 -27 -27 1001.5 998.5
15 18.01 СВ 5 20 км 9/6 600 м
[Sc Ac trans]
-12.8 -15.5 80 -21 -21 1001.4 998.3
18 18.01 С 6 10 км 10/6 600 м
[Sc Ac trans]
-11.2 -13.1 86 -20 -20 1000.1 997.1
21 18.01 СВ 7
{12}
10 км слаб. ливневой снег {метель} 10/10 200 м
[Cb cap]
-9.3 -11.1 87 -18 -18 998.0 995.0 -19.8 0.0 144
00 19.01 СВ 5
{12}
20 км позёмок {ливн. осадки} 10/8 1000 м
[Sc Ac und]
-5.5 -8.0 83 -13 -13 995.9 993.0
03 19.01 СВ 6-10
{12}
10 км позёмок 10/8 600 м
[Sc Ac und]
-3.9 -6.4 83 -11 -11 993.3 990.4
06 19.01 СВ 5
{11}
10 км слаб. ливневой снег {метель} 10/10 200 м
[Cb cap]
-3.3 -4.1 94 -10 -10 992.3 989.5
09 19.01 СВ 6
{10}
2000 м ливневой снег 10/10 100 м
[Cb cap]
-1.4 -2.0 96 -9 -9 992.4 989.5 -1.4 0.2
12 19.01 ЮВ 1 10 км {ливн. осадки} 10/10 200 м
[St]
-2.0 -2.3 98 -4 -4 993.8 990.9
15 19.01 С 7 10 км слаб. ливневой снег 10/10 100 м
[Cb cap]
+0.3 0.0 98 -7 -7 994.0 991.2
18 19.01 В 3
{14}
10 км слаб. ливневой снег 10/10 100 м
[Cb cap]
+1.2 +0.5 95 -3 -3 993.7 990.8
21 19.01 СВ 9-14
{17}
10 км слаб. ливневой снег 10/10 100 м
[Cb cap]
+1.0 -0.6 89 -7 -7 994.4 991.6 -2.6 0.3 143
00 20.01 С 7-12
{17}
2000 м ливневой снег 10/10 200 м
[Cb cap]
+0.6 -0.1 95 -7 -7 994.9 992.1
03 20.01 СВ 13-18
{18}
10 км слаб. ливневой снег 10/10 200 м
[Cb cap]
+0.4 -0.2 96 -9 -9 992.8 989.9
06 20.01 СВ 10-15
{21}
10 км {ливн. осадки} 10/10 100 м
[St]
+0.2 -0.4 96 -8 -8 991.6 988.7
09 20.01 В 10-17
{20}
10 км в посл. час ливневой снег {метель} 10/10 200 м
[St]
+0.9 -2.1 80 -7 -7 992.3 989.4 +1.1 4
12 20.01 В 7-14
{20}
10 км слаб. ливневой снег 10/10 200 м
[Cb cap]
+0.5 -2.6 80 -6 -6 995.9 993.1
15 20.01 В 6-10
{15}
н/о н/о +0.5 -2.7 79 -6 -6 998.3 995.5
18 20.01 СВ 2
{10}
10 км {ливн. осадки} 6/3 1000 м
[Sc Ac trans]
+0.1 -4.8 70 -3 -3 1000.7 997.8
21 20.01 СЗ 2 10 км 8/3 1000 м
[Sc Ac trans]
-0.9 -4.5 77 -5 -5 1002.4 999.5 -1.5 0.0 145
00 21.01 С 3 10 км 9/4 600 м
[Sc Ac trans]
-0.3 -2.3 86 -5 -5 1003.1 1000.2
03 21.01 В 7-10
{11}
1000 м ливневой снег 10/10 100 м
[Cb cap]
+0.8 +0.2 96 -6 -6 1001.2 998.3
06 21.01 В 7-13
{13}
1000 м ливневой снег 10/10 100 м
[Cb cap]
+0.9 -0.3 92 -6 -6 1002.5 999.6
09 21.01 В 7-13
{15}
10 км слаб. ливневой снег 10/10 200 м
[Cb cap]
+1.0 -0.7 88 -6 -6 1003.7 1000.8 +1.2 1
12 21.01 В 7-11
{13}
10 км слаб. ливневой снег 10/10 200 м
[Cb cap]
+0.5 -0.8 91 -7 -7 1004.7 1001.8
15 21.01 СВ 7
{15}
10 км в посл. час ливневой снег 10/10 200 м
[St]
+0.3 -0.9 92 -7 -7 1005.0 1002.1
18 21.01 СВ 4
{12}
10 км слаб. ливневой снег 10/10 200 м
[Cb cap]
+0.1 -1.4 90 -5 -5 1005.8 1002.9
21 21.01 С 2 10 км {ливн. осадки} 9/8 300 м
[St Ac trans]
-0.8 -1.8 93 -5 -5 1007.3 1004.4 -1.3 0.3 145
00 22.01 СВ 7-11
{11}
1000 м ливневой снег 10/10 200 м
[Cb cap]
-0.4 -1.3 94 -8 -8 1008.4 1005.5
03 22.01 С 8-11
{15}
10 км {ливн. осадки, метель} 10/10 200 м
[]
-1.3 -2.4 92 -9 -9 1008.6 1005.7
06 22.01 СВ 8-13
{14}
10 км слаб. ливневой снег {метель} 10/10 300 м
[Cb cap]
-2.0 -3.8 87 -10 -10 1008.8 1005.9
09 22.01 С 6
{13}
10 км позёмок {ливн. осадки} 10/10 300 м
[St]
-2.3 -3.9 89 -10 -10 1009.2 1006.3 -0.2 3

 

Местоположение метеостанции Усть-Камчатск (Камчатский край, Россия): широта 56.22 долгота 162.70 высота над уровнем моря 30 м.

В архиве по умолчанию представлена погода в Усть-Камчатске за последнюю неделю. Архивные данные за месяц целиком и за предыдущие месяцы, начиная с января 2011 года, Вы можете получить, выбрав интересующий диапазон дат из раскрывающегося списка и нажав кнопку "Ввод!".


*Определитесь, кто Вы:
робот инопланетянин человек

Внимание! Время в таблицах - всемирное. Для получения местного времени необходимо прибавить поправку, которая равна 12 ч.

Смотрите также архив погоды в соседних городах и на ближайших метеорологических станциях:

Погода на Мысе Африка (Камчатский край, Россия) (37 км)
Погода в Ключах (Камчатский край, Россия) (118 км)
Погода на Мысе Озерном (Камчатский край, Россия) (162 км)
Погода в Козыревске (Камчатский край, Россия) (181 км)
Погода на Острове Беринга (Камчатский край, Россия) (230 км)
Погода в Эссо (Камчатский край, Россия) (250 км)
Погода в Долиновке (Камчатский край, Россия) (262 км)
Погода в Семячике (Камчатский край, Россия) (294 км)
Погода в Тигиле (Камчатский край, Россия) (301 км)
Погода в Мильково (Камчатский край, Россия) (315 км)

Пояснения к столбцам:

Ветер - указаны скорость ветра в м/с - средняя за 10 мин, порывы в срок и между сроками (в фигурных скобках) и направление, откуда дует ветер: С - северный, СВ - северо-восточный, В - восточный, ЮВ - юго-восточный, Ю - южный, ЮЗ - юго-западный, З - западный, СЗ - северо-западный.
Видимость - горизонтальная дальность видимости в метрах или километрах. При видимости от 1 до 10 км при отсутствии осадков обычно наблюдается дымка, при ухудшении видимости до 1 км и менее - туман. В сухую погоду видимость может ухудшаться дымом, пылью или мглою.
Явления - указаны атмосферные явления, наблюдавшиеся в срок или в последний час перед сроком; фигурными скобками обозначены явления, наблюдавшиеся между сроками (за 1-3 часа до срока); квадратными скобками обозначены град или гололедные отложения с указанием их диаметра в мм.
Облачность - указаны через наклонную черту общая и нижняя облачность в баллах и высота нижней границы облаков в метрах; квадратными скобками обозначены формы облаков: Ci - перистые, Cs - перисто-слоистые, Cc - перисто-кучевые, Ac - высококучевые, As - высокослоистые, Sc - слоисто-кучевые, Ns - слоисто-дождевые, Cu - кучевые, Cb - кучево-дождевые. Подробнее классификацию облаков см. в Атласе облаков (PDF).
T - Температура воздуха - температура, измеренная на высоте 2 м над землей.
Td - Температура точки росы - температура, при понижении до которой содержащийся в воздухе водяной пар достигнет насыщения.
f - Относительная влажность воздуха - влажноcть воздуха, измеренная на высоте 2 м над землей.
Te - Эффективная температура - температура, которую ощущает одетый по сезону человек в тени. Характеристика душности погоды. При расчете учитывается влияние влажности воздуха и скорости ветра на теплоощущения человека.
Tes - Эффективная температура на солнце - температура, которую ощущает человек, с поправкой на солнечный нагрев. Характеристика знойности погоды. Зависит от высоты солнца над горизонтом, облачности и скорости ветра. Ночью, в пасмурную погоду, а также при ветре 12 м/с и более поправка равна нулю.
P - Атмосферное давление - приведенное к уровню моря атмосферное давление.
Po - Атмосферное давление - измеренное на уровне метеостанции атмосферное давление.
Tmin - Минимальная температура - минимум температуры воздуха на высоте 2 м над землей.
Tmax - Максимальная температура - максимум температуры воздуха на высоте 2 м над землей.
R - Количество осадков - Количество выпавших осадков за период времени, мм. При наведении курсора мыши на число - период времени, за который выпало указанное количество осадков.
R24 - Количество осадков - Количество выпавших осадков за 24 часа, мм.
S - Снежный покров - Высота снежного покрова, см. При наведении курсора мыши на число - состояние снежного покрова и степень покрытия местности в баллах.